Location: Bay Shore Mobile Home Park
(38.5762°N, 75.0841°W)
Time: 19:29:42
(UTC+00:00)

Helios 1A Rocket - Pass Details

Date: 15 November 2025
Orbit: 439 x 452 km, 98.3° (Epoch: 08 December)

Event Time Altitude Azimuth Distance (km) Brightness Sun altitude
Exits shadow 23:44:03 23° 339° (NNW) 1,007 4.3 -22.9°
Maximum altitude 23:45:38 37° 287° (WNW) 716 3.9 -23.2°
Drops below altitude 10° 23:48:45 10° 219° (SW) 1,567 5.7 -23.8°
Sets 23:50:51 0° 211° (SSW) 2,437 6.6 -24.2°
